TimeCDT,TemperatureF,Dew PointF,Humidity,Sea Level PressureIn,VisibilityMPH,Wind Direction,Wind SpeedMPH,Gust SpeedMPH,PrecipitationIn,Events,Conditions,WindDirDegrees,DateUTC
12:15 AM,63.3,59.0,86,30.02,10.0,Calm,Calm,-,N/A,,Clear,0,2013-09-12 05:15:00
12:35 AM,61.2,57.2,87,30.02,10.0,South,3.5,-,N/A,,Clear,180,2013-09-12 05:35:00
12:55 AM,61.2,57.9,89,30.01,10.0,Calm,Calm,-,N/A,,Clear,0,2013-09-12 05:55:00
1:15 AM,61.2,57.2,87,30.00,10.0,Calm,Calm,-,N/A,,Clear,0,2013-09-12 06:15:00
1:35 AM,59.7,56.8,90,30.00,10.0,Calm,Calm,-,N/A,,Clear,0,2013-09-12 06:35:00
1:55 AM,60.8,58.1,91,30.00,10.0,Calm,Calm,-,N/A,,Clear,0,2013-09-12 06:55:00
2:15 AM,60.4,57.9,91,30.00,10.0,South,3.5,-,N/A,,Clear,170,2013-09-12 07:15:00
2:35 AM,59.9,57.4,91,30.00,10.0,Calm,Calm,-,N/A,,Clear,0,2013-09-12 07:35:00
2:55 AM,58.6,56.5,93,30.00,10.0,South,3.5,-,N/A,,Clear,190,2013-09-12 07:55:00
3:15 AM,57.9,55.8,92,30.00,10.0,Calm,Calm,-,N/A,,Clear,0,2013-09-12 08:15:00
3:35 AM,57.9,55.8,92,30.00,7.0,Calm,Calm,-,N/A,,Clear,0,2013-09-12 08:35:00
3:55 AM,57.4,55.4,93,29.99,10.0,Calm,Calm,-,N/A,,Clear,0,2013-09-12 08:55:00
4:15 AM,57.9,55.8,92,29.99,10.0,SW,4.6,-,N/A,,Clear,230,2013-09-12 09:15:00
4:35 AM,59.4,55.6,87,29.99,10.0,WSW,4.6,-,N/A,,Clear,250,2013-09-12 09:35:00
4:55 AM,58.6,54.7,87,29.99,10.0,SSW,3.5,-,N/A,,Clear,200,2013-09-12 09:55:00
5:15 AM,59.0,54.5,85,29.99,10.0,WSW,3.5,-,N/A,,Clear,250,2013-09-12 10:15:00
5:35 AM,59.9,54.7,83,30.00,10.0,WNW,8.1,-,N/A,,Clear,290,2013-09-12 10:35:00
5:55 AM,59.4,54.7,84,30.00,10.0,WNW,8.1,-,N/A,,Clear,290,2013-09-12 10:55:00
6:15 AM,59.0,53.8,83,30.00,10.0,WNW,5.8,-,N/A,,Clear,300,2013-09-12 11:15:00
6:35 AM,58.1,53.4,84,30.02,10.0,West,5.8,-,N/A,,Clear,280,2013-09-12 11:35:00
6:55 AM,58.3,52.7,82,30.02,10.0,WNW,8.1,-,N/A,,Clear,300,2013-09-12 11:55:00
7:15 AM,58.6,51.8,78,30.03,10.0,WNW,8.1,-,N/A,,Clear,300,2013-09-12 12:15:00
7:35 AM,58.6,51.8,78,30.04,10.0,NW,6.9,-,N/A,,Clear,310,2013-09-12 12:35:00
7:55 AM,59.5,52.0,76,30.04,10.0,NW,6.9,-,N/A,,Clear,310,2013-09-12 12:55:00
8:15 AM,60.3,52.0,74,30.04,10.0,NNW,8.1,-,N/A,,Clear,340,2013-09-12 13:15:00
8:35 AM,61.5,51.8,70,30.04,10.0,NNW,5.8,-,N/A,,Clear,330,2013-09-12 13:35:00
8:55 AM,62.2,51.6,68,30.05,10.0,NNW,9.2,-,N/A,,Clear,330,2013-09-12 13:55:00
9:15 AM,63.3,52.0,66,30.06,10.0,NNW,9.2,16.1,N/A,,Clear,330,2013-09-12 14:15:00
9:35 AM,63.1,51.6,66,30.06,10.0,NNW,9.2,-,N/A,,Clear,330,2013-09-12 14:35:00
9:55 AM,64.6,51.6,63,30.06,10.0,NNW,10.4,-,N/A,,Clear,340,2013-09-12 14:55:00
10:15 AM,66.0,52.0,60,30.07,10.0,NW,11.5,16.1,N/A,,Clear,320,2013-09-12 15:15:00
10:35 AM,67.3,51.4,57,30.08,10.0,NNW,11.5,18.4,N/A,,Scattered Clouds,340,2013-09-12 15:35:00
10:55 AM,68.0,51.6,56,30.08,10.0,NNW,11.5,17.3,N/A,,Scattered Clouds,330,2013-09-12 15:55:00
11:15 AM,68.2,51.1,54,30.08,10.0,North,11.5,17.3,N/A,,Scattered Clouds,350,2013-09-12 16:15:00
11:35 AM,67.1,50.9,56,30.08,10.0,North,12.7,18.4,N/A,,Mostly Cloudy,350,2013-09-12 16:35:00
11:55 AM,68.4,50.0,52,30.08,10.0,NNW,9.2,20.7,N/A,,Mostly Cloudy,340,2013-09-12 16:55:00
12:15 PM,70.0,49.8,49,30.08,10.0,NNW,10.4,16.1,N/A,,Scattered Clouds,340,2013-09-12 17:15:00
12:35 PM,69.3,49.8,50,30.08,10.0,North,6.9,-,N/A,,Scattered Clouds,350,2013-09-12 17:35:00
12:55 PM,70.0,49.3,48,30.09,10.0,NNW,12.7,19.6,N/A,,Mostly Cloudy,330,2013-09-12 17:55:00
1:15 PM,70.3,49.5,47,30.08,10.0,NNW,10.4,18.4,N/A,,Scattered Clouds,330,2013-09-12 18:15:00
1:35 PM,70.3,48.4,46,30.08,10.0,NW,11.5,18.4,N/A,,Scattered Clouds,320,2013-09-12 18:35:00
1:55 PM,71.2,47.7,43,30.08,10.0,NNW,10.4,17.3,N/A,,Scattered Clouds,330,2013-09-12 18:55:00
2:15 PM,70.5,45.9,41,30.08,10.0,North,9.2,18.4,N/A,,Mostly Cloudy,350,2013-09-12 19:15:00
2:55 PM,71.2,45.9,40,30.08,10.0,NNW,11.5,20.7,N/A,,Mostly Cloudy,330,2013-09-12 19:55:00
3:15 PM,69.1,45.5,43,30.08,10.0,NNW,11.5,21.9,N/A,,Scattered Clouds,330,2013-09-12 20:15:00
3:35 PM,69.8,44.4,40,30.08,10.0,NNW,13.8,26.5,N/A,,Mostly Cloudy,340,2013-09-12 20:35:00
3:55 PM,69.4,45.0,41,30.07,10.0,NNW,8.1,25.3,N/A,,Mostly Cloudy,340,2013-09-12 20:55:00
4:15 PM,68.2,45.3,44,30.08,10.0,NNW,10.4,16.1,N/A,,Mostly Cloudy,340,2013-09-12 21:15:00
4:35 PM,69.3,45.1,42,30.07,10.0,NW,9.2,-,N/A,,Mostly Cloudy,320,2013-09-12 21:35:00
4:55 PM,69.3,43.9,40,30.07,10.0,NNW,8.1,20.7,N/A,,Mostly Cloudy,330,2013-09-12 21:55:00
5:15 PM,70.5,42.3,36,30.07,10.0,NW,13.8,23.0,N/A,,Mostly Cloudy,320,2013-09-12 22:15:00
5:35 PM,70.5,41.2,35,30.07,10.0,NNW,13.8,20.7,N/A,,Scattered Clouds,340,2013-09-12 22:35:00
5:55 PM,69.8,41.9,36,30.08,10.0,NNW,8.1,16.1,N/A,,Mostly Cloudy,330,2013-09-12 22:55:00
6:15 PM,68.5,42.6,39,30.08,10.0,NW,9.2,-,N/A,,Mostly Cloudy,320,2013-09-12 23:15:00
6:35 PM,68.7,43.2,40,30.09,10.0,NNW,6.9,16.1,N/A,,Mostly Cloudy,330,2013-09-12 23:35:00
6:55 PM,67.3,43.7,42,30.09,10.0,North,6.9,-,N/A,,Mostly Cloudy,360,2013-09-12 23:55:00
7:15 PM,65.8,44.8,47,30.10,10.0,North,4.6,-,N/A,,Scattered Clouds,350,2013-09-13 00:15:00
7:35 PM,64.4,45.5,50,30.10,10.0,NW,3.5,-,N/A,,Scattered Clouds,320,2013-09-13 00:35:00
7:55 PM,63.0,45.0,52,30.11,10.0,NNW,4.6,-,N/A,,Scattered Clouds,330,2013-09-13 00:55:00
8:15 PM,63.0,43.9,50,30.12,10.0,NNW,3.5,-,N/A,,Clear,340,2013-09-13 01:15:00
8:35 PM,62.4,43.9,51,30.12,10.0,North,5.8,-,N/A,,Clear,350,2013-09-13 01:35:00
8:55 PM,61.9,43.9,52,30.13,10.0,North,4.6,-,N/A,,Clear,350,2013-09-13 01:55:00
9:15 PM,61.9,43.7,51,30.13,10.0,North,9.2,-,N/A,,Clear,350,2013-09-13 02:15:00
9:35 PM,61.7,43.2,51,30.14,10.0,North,5.8,-,N/A,,Clear,360,2013-09-13 02:35:00
9:55 PM,60.4,42.8,52,30.14,10.0,NNE,3.5,-,N/A,,Clear,20,2013-09-13 02:55:00
10:15 PM,59.4,43.2,55,30.15,10.0,NNE,6.9,-,N/A,,Clear,20,2013-09-13 03:15:00
10:35 PM,58.1,43.9,59,30.16,10.0,NNE,6.9,-,N/A,,Clear,20,2013-09-13 03:35:00
10:55 PM,57.2,43.7,61,30.16,10.0,NNE,4.6,-,N/A,,Clear,20,2013-09-13 03:55:00
11:15 PM,56.3,43.0,61,30.17,10.0,NNE,5.8,-,N/A,,Clear,30,2013-09-13 04:15:00
11:35 PM,55.4,42.1,61,30.17,10.0,NNE,6.9,-,N/A,,Clear,30,2013-09-13 04:35:00
11:55 PM,54.7,41.9,62,30.17,10.0,NNE,5.8,-,N/A,,Clear,20,2013-09-13 04:55:00